Location: Le Rocchette
(44.3500°N, 7.8333°E)
Time: 17:31:19
(UTC+00:00)

ISS - Visible Passes

Search period start: 23 June 2021 00:00
Search period end: 03 July 2021 00:00
Orbit: 417 x 422 km, 51.6° (Epoch: 22 June)

Date Brightness Start Highest point End Pass type
(mag) Time Alt. Az. Time Alt. Az. Time Alt. Az.
26 Jun -1.6 03:00:16 10° S 03:02:37 18° SE 03:04:58 10° E visible
27 Jun -1.1 02:14:29 10° SE 02:15:23 11° SE 02:16:17 10° ESE visible
28 Jun -3.1 03:01:01 10° SW 03:04:16 46° SE 03:07:31 10° ENE visible
29 Jun -2.4 02:15:15 19° S 02:16:56 28° SE 02:19:53 10° ENE visible
30 Jun -1.8 01:29:33 18° SE 01:29:39 18° SE 01:32:01 10° E visible
30 Jun -3.5 03:02:46 10° WSW 03:06:08 70° NNW 03:09:30 10° NE visible
01 Jul -3.8 02:16:44 23° SW 02:18:42 76° SE 02:22:04 10° ENE visible
02 Jul -3.4 01:30:56 44° SSE 01:31:18 47° SE 01:34:33 10° ENE visible
02 Jul -2.4 03:05:03 10° W 03:08:11 35° NNW 03:11:20 10° NE visible
